Location: Lewisville
(33.0462°N, 96.9942°W)
Time: 13:53:26
(UTC-05:00)

Tiangong 2 - Pass Details

Date: 06 July 2019
Orbit: 185 x 376 km, 42.8° (Epoch: 19 July)

Event Time Altitude Azimuth Distance (km) Brightness Sun altitude
Rises 05:36:21 0° 303° (WNW) 1,853 4.3 -9.5°
Reaches altitude 10° 05:38:21 10° 308° (NW) 1,002 3.0 -9.2°
Maximum altitude 05:40:32 52° 27° (NNE) 293 0.9 -8.8°
Drops below altitude 10° 05:42:31 10° 107° (ESE) 913 3.5 -8.5°
Sets 05:44:15 0° 113° (ESE) 1,654 4.8 -8.2°
